Wind_Speed
22 21 20 18 17 15 13 11 9 7 5 4 3 4 5 6 7 8 10 11 12 12 13 13 13 13 13 14 14 14 14 13 12 10 9 8 7 5 3 3 3 2 2 1
24 23 21 21 19 17 15 13 11 10 8 7 5 5 4 6 7 8 9 10 11 11 11 11 12 12 13 13 13 13 13 12 12 10 9 8 7 5 3 3 2 2 2 2
25 24 24 23 21 19 17 16 14 13 12 10 8 7 7 6 7 7 9 10 10 10 10 10 11 11 11 12 12 12 12 12 11 10 9 8 7 5 4 3 2 2 2 3
25 25 25 24 23 21 19 19 18 16 15 13 11 10 8 7 7 8 9 10 10 10 9 9 10 10 10 11 11 11 12 12 11 11 10 8 7 5 4 4 3 2 2 3
27 26 26 25 24 22 21 21 20 19 17 15 13 12 9 9 8 9 9 9 10 11 9 9 9 10 10 10 11 11 12 12 12 11 10 9 8 7 6 5 4 3 4 4
28 27 27 26 26 25 24 24 22 21 19 17 16 15 12 11 10 10 11 11 10 10 9 9 9 10 10 10 11 11 11 12 12 11 10 9 9 8 7 6 6 5 5 5
28 28 27 27 27 27 27 25 24 23 21 20 18 18 15 12 12 12 13 12 11 10 9 9 10 10 10 10 11 11 11 12 11 11 10 10 9 8 8 7 6 6 6 6
28 28 28 28 28 28 27 26 26 25 24 22 21 20 17 15 14 15 15 14 12 11 10 10 10 9 10 11 12 12 12 12 11 11 11 11 10 9 8 7 7 7 6 6
28 28 28 28 29 29 29 29 27 26 25 24 23 21 19 17 16 15 15 14 12 11 11 10 9 9 10 11 12 13 13 13 12 12 11 11 11 9 8 8 8 8 7 6
28 28 29 29 29 30 31 30 29 28 27 26 24 22 19 17 17 16 14 13 11 11 11 10 10 10 11 12 12 13 14 13 12 12 12 11 10 9 8 8 8 8 8 8
29 29 29 29 30 29 30 30 30 29 28 28 26 23 19 17 16 16 15 14 12 12 12 13 13 12 12 12 13 13 14 13 12 12 12 11 10 9 8 8 8 9 10 10
30 30 30 30 30 31 31 31 30 30 29 28 27 23 19 18 17 16 15 15 15 15 14 14 13 13 13 13 13 13 14 13 12 12 12 11 10 9 9 9 9 10 10 11
31 31 30 31 31 32 32 32 32 31 30 29 28 24 21 20 19 18 18 17 17 17 16 15 14 14 14 14 14 14 13 13 13 13 13 12 11 11 11 11 11 12 12 12
31 31 31 30 31 31 31 32 31 31 31 31 29 26 24 22 21 20 20 20 19 18 18 17 16 16 16 15 15 15 15 14 14 14 13 13 13 13 13 13 14 14 14 14
31 31 31 30 30 32 32 32 32 31 31 31 29 28 26 24 23 22 22 21 20 19 18 17 17 17 16 15 15 15 15 15 15 15 14 14 14 15 15 15 15 15 16 16
33 33 32 32 32 32 33 33 33 32 32 31 30 29 27 27 25 24 23 22 21 20 20 19 18 18 17 16 16 16 16 16 16 16 16 16 17 18 18 17 17 18 18 18
35 36 34 34 33 32 33 33 33 33 33 33 32 31 30 29 28 27 26 25 23 22 22 21 21 19 19 17 17 17 17 18 18 19 19 19 19 20 20 20 20 20 19 19
36 36 36 36 35 36 34 34 33 33 33 34 34 33 32 31 29 28 27 27 25 23 22 22 22 21 20 20 20 20 20 20 20 21 22 21 22 22 22 23 23 22 20 20
39 38 38 38 38 37 36 35 35 34 34 34 34 34 34 33 31 30 28 27 27 26 25 24 24 24 23 23 22 22 22 22 23 23 23 23 24 24 24 24 24 23 21 21
41 41 40 40 40 40 38 37 36 36 37 35 35 35 34 34 33 31 30 29 29 28 27 27 27 26 25 25 24 24 25 25 25 24 24 24 24 24 24 24 23 23 23 23
41 41 42 42 41 40 39 38 37 37 37 36 36 36 36 36 35 33 32 31 30 30 29 29 29 29 28 28 27 26 26 26 27 26 26 25 25 24 24 24 24 24 25 25
41 42 42 42 42 42 39 38 38 37 36 36 36 37 37 37 37 35 34 32 31 31 31 30 30 30 30 30 29 29 29 28 29 29 28 27 26 26 25 25 25 26 26 27
39 40 40 42 42 41 40 39 38 38 37 37 36 37 37 37 37 36 36 35 34 33 33 33 33 31 31 32 32 31 31 32 31 31 30 29 28 28 28 27 27 27 27 28
37 37 39 40 41 40 39 39 39 39 38 38 38 38 38 38 37 37 36 36 36 36 35 34 34 33 33 32 33 32 31 31 32 32 32 32 30 29 29 28 28 28 29 29
36 37 37 38 39 39 39 39 39 39 39 39 38 38 38 38 38 38 37 37 37 36 35 35 34 34 32 32 33 33 32 33 33 33 33 32 31 29 29 29 29 30 30 30
36 36 37 38 38 39 39 39 40 40 40 40 40 39 38 39 38 38 39 38 37 37 36 36 35 35 33 32 32 33 34 34 33 33 33 32 30 29 30 30 31 31 32 32
Wind_Direction
221 220 222 224 228 230 233 233 232 237 256 282 319 346 352 2 1 359 1 5 6 12 13 16 18 20 22 23 24 26 29 30 29 26 25 26 25 24 22 18 13 0 343 265
224 223 222 226 229 231 233 234 236 240 252 262 278 291 317 341 349 352 353 354 356 3 8 10 11 13 15 17 19 19 22 23 22 20 19 18 16 11 4 357 348 331 308 281
226 225 224 227 229 230 232 236 239 240 248 257 264 271 286 313 330 334 340 343 347 353 358 2 3 3 6 10 12 12 14 16 16 15 11 10 5 358 349 349 343 318 287 273
225 225 226 228 229 231 234 239 240 241 247 255 261 264 272 292 314 317 323 329 336 339 344 352 356 358 -0 4 3 3 5 8 8 8 7 2 356 348 339 329 317 311 295 280
226 226 226 227 229 231 233 238 240 243 245 252 258 264 270 283 298 305 313 320 330 330 330 338 345 351 355 357 355 355 357 358 0 2 1 358 356 348 338 330 316 302 297 287
227 226 226 226 228 230 232 236 239 242 245 251 259 266 271 276 286 295 302 309 318 319 318 326 334 339 343 346 347 350 355 355 357 356 358 356 352 349 343 333 324 313 300 287
227 226 225 225 228 231 233 236 240 244 247 255 259 264 271 277 280 283 291 299 305 308 306 311 321 326 334 337 339 340 349 349 348 350 351 348 347 345 341 333 324 315 302 288
228 226 225 227 229 231 234 238 243 248 251 256 260 263 269 274 277 278 282 290 298 299 300 303 312 322 326 329 331 336 341 340 338 339 340 339 338 337 338 333 328 321 314 303
228 226 226 228 229 232 235 240 244 248 251 255 260 265 267 268 273 277 283 288 294 294 294 296 305 317 321 322 325 329 328 326 327 329 331 331 330 328 327 326 327 327 320 308
227 225 224 227 229 232 236 239 242 246 251 255 259 264 268 267 270 271 272 281 290 290 288 292 300 308 314 318 318 320 325 323 324 325 327 329 328 324 323 322 319 320 318 310
228 227 224 226 229 232 235 237 241 245 250 253 259 262 264 268 269 267 271 276 279 282 286 291 293 297 304 310 315 318 322 324 325 325 328 329 328 324 322 318 315 316 315 313
229 230 227 225 228 231 234 236 240 245 250 255 259 261 261 265 265 265 268 272 273 277 281 286 289 294 295 300 306 311 314 315 318 321 324 326 328 325 318 312 311 311 310 308
231 232 231 227 228 232 235 238 241 245 249 254 258 260 259 262 264 266 268 271 272 274 279 282 286 292 292 292 296 301 308 309 309 311 316 319 321 322 318 312 308 307 306 303
234 236 235 233 231 234 237 239 243 246 250 254 256 259 259 261 262 263 266 270 270 274 279 279 278 289 293 289 290 295 300 304 306 308 312 313 312 315 315 310 307 305 304 300
236 238 237 235 233 233 236 239 243 246 251 254 256 258 261 262 262 261 263 267 271 275 277 281 280 283 286 285 286 289 293 299 302 305 306 309 308 305 307 308 306 304 302 301
239 241 240 239 238 237 237 239 242 245 249 252 255 257 259 261 263 263 263 264 268 273 275 278 278 280 281 285 287 286 288 293 297 298 299 300 302 299 298 299 300 300 299 298
241 242 242 242 242 242 240 240 243 245 248 251 254 257 258 261 264 264 262 264 266 269 270 271 273 277 280 282 283 284 284 287 292 292 291 294 296 298 296 298 296 295 296 296
242 243 244 245 244 245 245 244 244 246 249 251 253 255 257 258 261 263 264 264 266 266 266 269 271 273 275 278 280 282 283 285 287 289 288 290 292 295 296 296 298 295 293 294
242 243 246 246 246 248 248 248 248 249 250 251 252 254 256 259 260 261 263 265 266 264 263 264 268 268 271 276 280 282 283 286 287 289 288 289 291 291 293 296 297 296 297 300
243 244 246 247 249 250 250 250 251 252 253 252 253 254 256 258 260 261 263 264 264 263 262 261 264 267 271 275 278 282 283 285 286 288 288 288 290 291 294 295 296 298 298 300
243 245 245 247 249 251 252 252 252 254 254 254 254 254 255 256 259 261 262 261 261 260 259 262 264 265 268 272 275 279 281 283 284 284 285 286 287 288 292 291 293 295 297 298
244 245 246 247 249 251 252 253 253 254 255 255 255 254 254 255 256 258 260 259 259 260 259 261 264 265 268 270 273 275 278 280 281 281 280 284 287 286 288 290 292 293 294 294
243 244 246 247 249 251 252 254 254 254 255 255 255 255 254 255 255 257 258 259 260 261 261 260 262 265 269 271 274 275 278 278 279 281 282 283 285 285 285 286 289 292 294 294
245 246 247 248 248 250 252 253 255 255 256 256 256 256 256 255 255 256 258 259 261 262 262 262 264 267 269 272 273 275 276 275 277 279 282 282 281 282 283 284 288 291 292 295
246 247 247 248 250 251 252 254 255 255 255 256 256 257 255 255 255 255 256 257 259 260 261 262 264 265 267 268 269 271 272 273 275 277 281 281 279 281 284 285 287 289 290 292
247 247 248 249 250 252 252 254 255 256 257 256 257 258 256 256 257 256 256 257 257 258 260 262 265 264 265 266 268 270 271 273 274 276 279 281 280 283 283 284 285 286 288 290
Height
5915 5919 5920 5922 5923 5924 5925 5926 5926 5927 5927 5928 5928 5928 5928 5927 5926 5925 5924 5923 5921 5920 5918 5916 5914 5911 5909 5907 5905 5903 5900 5899 5897 5896 5894 5893 5892 5892 5891 5890 5890 5890 5890 5890
5913 5915 5918 5919 5920 5922 5923 5925 5926 5926 5927 5927 5927 5927 5927 5927 5927 5925 5924 5923 5922 5920 5918 5916 5914 5912 5910 5908 5906 5904 5902 5900 5898 5897 5895 5894 5893 5892 5891 5890 5890 5889 5889 5889
5909 5913 5914 5916 5918 5920 5922 5923 5924 5925 5925 5925 5926 5927 5927 5927 5926 5925 5924 5923 5921 5920 5918 5916 5915 5913 5911 5909 5907 5905 5902 5900 5899 5897 5896 5894 5893 5892 5891 5890 5889 5889 5888 5888
5905 5908 5911 5913 5915 5918 5920 5921 5922 5923 5923 5924 5925 5925 5926 5926 5925 5924 5923 5922 5921 5919 5917 5916 5914 5912 5911 5909 5907 5905 5903 5901 5899 5897 5895 5894 5893 5892 5891 5890 5889 5888 5887 5887
5901 5904 5907 5910 5913 5914 5917 5918 5919 5920 5921 5922 5922 5923 5925 5924 5924 5924 5922 5921 5920 5919 5917 5915 5914 5912 5910 5909 5907 5905 5903 5901 5899 5897 5895 5894 5892 5891 5890 5889 5888 5887 5887 5886
5897 5899 5903 5906 5909 5911 5913 5915 5916 5917 5918 5919 5920 5920 5922 5922 5922 5922 5921 5920 5919 5918 5916 5915 5913 5912 5910 5908 5906 5904 5903 5900 5898 5897 5895 5893 5892 5891 5890 5889 5888 5887 5886 5886
5892 5895 5899 5902 5904 5907 5909 5912 5913 5914 5915 5917 5917 5917 5920 5920 5920 5920 5919 5918 5917 5916 5915 5914 5912 5911 5909 5908 5906 5903 5902 5900 5898 5896 5895 5893 5892 5890 5889 5888 5887 5887 5886 5885
5887 5891 5894 5897 5900 5902 5905 5907 5910 5911 5912 5913 5914 5914 5917 5917 5917 5916 5916 5916 5915 5914 5914 5912 5911 5910 5908 5906 5905 5902 5901 5899 5898 5896 5894 5892 5891 5889 5888 5887 5886 5885 5884 5884
5882 5887 5890 5893 5895 5898 5900 5902 5905 5907 5907 5909 5910 5911 5913 5913 5914 5914 5914 5913 5913 5912 5911 5910 5909 5908 5906 5905 5903 5901 5899 5898 5896 5894 5892 5891 5889 5888 5887 5886 5885 5884 5883 5883
5877 5881 5885 5887 5890 5892 5895 5898 5900 5901 5903 5904 5906 5907 5909 5910 5910 5911 5911 5911 5910 5909 5909 5908 5907 5906 5904 5903 5901 5899 5897 5895 5893 5892 5891 5889 5887 5886 5885 5884 5883 5883 5882 5881
5872 5876 5880 5883 5885 5888 5891 5893 5895 5897 5898 5900 5901 5905 5905 5906 5907 5907 5908 5908 5907 5907 5906 5905 5905 5903 5902 5901 5899 5897 5895 5893 5891 5890 5889 5887 5885 5884 5883 5882 5881 5881 5880 5879
5867 5870 5874 5878 5880 5882 5885 5887 5890 5892 5894 5895 5897 5902 5901 5902 5903 5903 5904 5904 5904 5904 5903 5902 5902 5901 5900 5898 5897 5895 5893 5891 5889 5888 5886 5885 5883 5882 5881 5880 5879 5878 5877 5876
5861 5865 5868 5872 5876 5878 5879 5882 5884 5887 5889 5890 5892 5897 5897 5898 5898 5899 5900 5900 5900 5900 5900 5899 5898 5897 5896 5895 5894 5892 5891 5889 5887 5885 5884 5883 5881 5880 5879 5878 5877 5876 5874 5874
5855 5858 5863 5867 5870 5872 5874 5877 5879 5881 5883 5884 5887 5890 5892 5893 5894 5895 5895 5896 5896 5896 5896 5895 5895 5894 5893 5891 5890 5889 5888 5886 5884 5883 5881 5881 5879 5878 5877 5876 5875 5873 5872 5871
5849 5852 5856 5860 5863 5865 5868 5871 5873 5875 5877 5879 5881 5883 5886 5887 5888 5889 5890 5891 5891 5892 5892 5891 5891 5890 5889 5888 5887 5886 5885 5883 5882 5880 5879 5878 5877 5875 5874 5873 5871 5870 5869 5868
5843 5846 5849 5853 5856 5859 5861 5864 5867 5869 5871 5873 5875 5877 5879 5880 5882 5884 5885 5886 5886 5887 5887 5886 5886 5885 5885 5884 5883 5882 5881 5880 5879 5877 5876 5874 5873 5872 5870 5869 5868 5866 5865 5864
5835 5839 5842 5845 5849 5851 5854 5858 5860 5862 5864 5866 5868 5871 5872 5874 5875 5877 5879 5880 5881 5881 5881 5881 5881 5880 5880 5880 5879 5878 5877 5876 5875 5873 5872 5871 5870 5868 5866 5865 5863 5862 5860 5859
5828 5831 5834 5838 5842 5844 5850 5850 5853 5855 5857 5859 5861 5863 5865 5867 5869 5870 5872 5873 5874 5875 5875 5875 5875 5874 5874 5874 5874 5873 5872 5871 5870 5869 5868 5867 5865 5864 5862 5861 5859 5857 5855 5854
5820 5823 5826 5829 5832 5835 5840 5842 5845 5847 5850 5852 5854 5856 5857 5859 5861 5863 5864 5865 5866 5867 5868 5868 5869 5868 5868 5868 5868 5867 5866 5866 5865 5863 5862 5861 5860 5858 5857 5856 5853 5852 5850 5848
5811 5815 5818 5820 5823 5827 5832 5835 5836 5840 5841 5843 5845 5847 5849 5850 5853 5856 5856 5857 5858 5859 5860 5861 5862 5862 5862 5861 5861 5860 5860 5860 5859 5857 5856 5854 5853 5852 5851 5850 5848 5846 5844 5843
5802 5805 5808 5811 5814 5817 5822 5825 5828 5831 5833 5834 5836 5838 5840 5842 5844 5846 5848 5849 5850 5851 5852 5853 5854 5854 5854 5854 5853 5853 5853 5852 5851 5850 5849 5848 5846 5845 5844 5843 5842 5840 5838 5836
5792 5795 5799 5802 5805 5810 5812 5815 5818 5821 5823 5825 5826 5828 5830 5832 5834 5837 5838 5840 5841 5842 5843 5844 5844 5845 5845 5845 5845 5845 5844 5844 5843 5842 5841 5840 5839 5838 5837 5836 5834 5833 5831 5829
5782 5786 5789 5793 5797 5799 5802 5804 5807 5810 5813 5815 5817 5819 5821 5823 5825 5827 5829 5830 5832 5833 5834 5834 5835 5836 5836 5836 5836 5836 5835 5834 5833 5833 5833 5832 5831 5830 5829 5828 5827 5825 5823 5822
5773 5776 5779 5782 5786 5789 5792 5794 5797 5800 5802 5805 5807 5809 5811 5813 5815 5817 5819 5820 5822 5822 5823 5824 5825 5826 5827 5827 5826 5826 5825 5825 5825 5825 5824 5823 5822 5821 5820 5819 5818 5817 5816 5814
5764 5766 5769 5773 5776 5779 5782 5784 5787 5789 5792 5794 5796 5798 5800 5802 5804 5806 5808 5810 5811 5812 5813 5814 5814 5815 5816 5817 5817 5817 5816 5816 5816 5816 5815 5813 5812 5812 5812 5811 5810 5809 5807 5805
5755 5758 5760 5763 5766 5769 5772 5774 5776 5779 5781 5783 5786 5788 5789 5791 5793 5794 5796 5798 5800 5801 5802 5803 5804 5804 5804 5805 5806 5807 5806 5806 5806 5806 5806 5804 5802 5802 5802 5802 5801 5799 5798 5797